This demonstration page uses our WeatherBlox Daily Observations layout. Learn more.

41.55636, -103.73856

Hourly Observations for December 6, 2019

Temp ( °F °C ) Dew Point ( °F °C ) Humidity (%) Winds ( mph kmh ) Pressure ( in mb ) Visibility ( mi km ) Precip ( " mm )
12:58 am 00:58 Clear 31 -0.5 26 -3.5 80 80 SSW 5 7 30.27 1025 10 16.0934 0 0
1:58 am 01:58 Clear 30 -1.1 25 -3.9 82 82 SW 3 6 30.3 1026 10 16.0934 0 0
2:58 am 02:58 Clear 30 -0.9 24 -4.3 78 78 WSW 3 6 30.32 1027 10 16.0934 0 0
3:58 am 03:58 Clear 28 -2.2 24 -4.4 85 85 Calm 30.35 1028 10 16.0934 0 0
4:58 am 04:58 Clear 27 -3 23 -4.8 88 88 ESE 6 9 30.45 1031 10 16.0934 0 0
5:58 am 05:58 Mostly Cloudy with Light Snow Showers 21 -6.1 20 -6.6 96 96 E 6 9 30.53 1034 8 12.87472 0 0
6:58 am 06:58 Partly Cloudy with Light Snow Showers 21 -6.3 20 -6.8 96 96 ESE 9 15 30.53 1034 9 14.48406 0 0
7:58 am 07:58 Mostly Clear 23 -5.1 23 -5.2 99 99 S 8 13 30.35 1028 10 16.0934 0 0
8:58 am 08:58 Partly Cloudy 22 -5.7 21 -5.9 99 99 WSW 7 11 30.37 1028 10 16.0934 0 0
9:58 am 09:58 Clear 23 -4.9 21 -5.9 93 93 Calm 30.33 1027 10 16.0934 0 0
10:58 am 10:58 Mostly Cloudy 28 -2.3 25 -4 88 88 SW 12 19 30.31 1026 10 16.0934 0 0
11:58 am 11:58 Partly Cloudy 25 -3.9 24 -4.6 95 95 SW 6 9 30.32 1027 10 16.0934 0 0
12:58 pm 12:58 Mostly Clear 29 -1.7 25 -4.1 84 84 WSW 7 11 30.33 1027 10 16.0934 0 0
1:58 pm 13:58 Partly Cloudy 33 0.3 25 -3.8 74 74 WSW 6 9 30.33 1027 10 16.0934 0 0
2:58 pm 14:58 Sunny 32 0.2 26 -3.3 78 78 SW 21 33 30.32 1027 10 16.0934 0 0
3:58 pm 15:58 Sunny 35 1.9 28 -2.4 73 73 SW 22 35 30.31 1026 10 16.0934 0 0
4:58 pm 16:58 Sunny 38 3.3 29 -1.4 72 72 SW 21 33 30.32 1027 10 16.0934 0 0
5:58 pm 17:58 Sunny 40 4.2 31 -0.8 70 70 SW 18 30 30.32 1027 10 16.0934 0 0
6:58 pm 18:58 Sunny 42 5.4 31 -0.4 67 67 SW 14 22 30.31 1026 10 16.0934 0 0
7:58 pm 19:58 Sunny 45 7.1 31 -0.6 58 58 WSW 9 15 30.27 1025 10 16.0934 0 0
8:58 pm 20:58 Sunny 47 8.1 31 -0.3 56 56 WSW 7 11 30.27 1025 10 16.0934 0 0
9:58 pm 21:58 Sunny 46 7.5 30 -1.1 55 55 WSW 10 17 30.25 1025 10 16.0934 0 0
10:58 pm 22:58 Sunny 43 6 30 -1 61 61 W 13 20 30.25 1025 10 16.0934 0 0
11:58 pm 23:58 Clear 41 5.2 30 -1.3 63 63 W 14 22 30.27 1025 10 16.0934 0 0

Powered by AerisWeather